Location: Stamford Observatory
(41.1241°N, 73.5498°W)
Time: 13:06:35
(UTC-04:00)

Daily predictions for brighter satellites

Satellite Brightness Start Highest point End
(mag) Time Altitude Azimuth Time Altitude Azimuth Time Altitude Azimuth
COSMOS 2428 2.8 19:56:29 10° S 20:02:08 64° ESE 20:07:48 10° NNE
Cosmos 2263 Rocket 4.5 19:58:44 10° NW 20:03:23 27° WSW 20:08:01 10° SSW
Cosmos 2333 4.2 19:58:10 10° SSW 20:03:46 69° ESE 20:09:22 10° NNE
Sich 1 3.4 20:00:39 10° N 20:04:46 45° ENE 20:08:51 10° SSE
FREGAT/IRIS 3.3 20:03:08 10° S 20:06:01 55° W 20:08:56 10° NNW
ERS-2 2.5 20:02:35 10° SE 20:06:05 45° ENE 20:09:36 10° N
CZ-2D R/B 3.2 20:02:45 10° SSE 20:06:31 66° ENE 20:10:19 10° N
Cosmos 1455 3.3 20:03:38 10° SSE 20:06:49 26° E 20:10:02 10° NNE
Cosmos 1844 4.0 20:01:54 10° NNW 20:07:30 55° ENE 20:13:08 10° SE
Cosmos 2251 Rocket 3.6 20:04:55 10° NNW 20:10:18 68° ENE 20:15:37 10° SSE
Envisat 3.0 20:06:11 10° SSE 20:11:14 75° ENE 20:16:20 10° N
Cosmos 2219 Rocket 2.3 20:06:19 10° S 20:11:47 53° ESE 20:17:16 10° NNE
USA 186 2.0 20:09:58 10° SE 20:11:55 26° ENE 20:13:55 10° NNE
Meteor 2-2 Rocket 4.5 20:06:25 10° S 20:12:04 54° E 20:17:51 10° NNE
Cosmos 2237 Rocket 3.1 20:09:22 10° SSE 20:13:56 26° ESE 20:18:30 10° NE
Cosmos 1892 3.1 20:10:43 10° N 20:14:29 45° E 20:18:11 10° SSE
BREEZE-M DEB (TANK) 3.8 20:08:52 10° WNW 20:15:15 58° SW 20:18:39 10° SE
YAOGAN 6 3.0 20:15:36 10° SE 20:19:01 44° ENE 20:22:31 10° N
Nadezhda 3 Rocket 4.1 20:15:12 10° N 20:21:30 66° E 20:27:48 10° SSE
Cosmos 2278 Rocket 3.1 20:18:03 10° N 20:23:10 33° ENE 20:27:58 11° ESE
Meteor 2-15 Rocket 4.5 20:19:29 10° N 20:25:39 70° E 20:31:44 10° SSE
Cosmos 1633 Rocket 3.1 20:22:25 10° N 20:26:44 59° E 20:31:01 10° SSE
Genesis I 4.0 20:22:52 10° NNW 20:26:44 39° NE 20:30:04 13° ESE
NOSS 2-1 (C) 4.4 20:33:46 10° SW 20:37:15 46° NW 20:41:07 10° NNE
Cosmos 1515 Rocket 4.1 20:33:40 10° SSE 20:37:48 39° E 20:41:57 10° NNE
NOSS 2-1 (D) 4.5 20:34:46 10° WSW 20:38:14 44° NW 20:42:06 10° NNE
BREEZE-M DEB (TANK) 2.8 20:34:15 10° WNW 20:38:58 54° NNE 20:40:36 18° E
Cosmos 1340 3.6 20:35:27 10° SSW 20:39:08 52° WNW 20:42:52 10° N
Thor Agena Rocket 3.7 20:36:35 10° NNE 20:41:51 86° WNW 20:47:07 10° SSW
Cosmos 2228 Rocket 3.4 20:38:22 10° SSE 20:42:31 43° E 20:46:41 10° NNE
SL-24 R/B - RUBIN 2 4.3 20:39:04 10° NW 20:43:16 49° WSW 20:47:29 10° SSE
Lacrosse 5 4.4 20:42:30 10° NNW 20:44:53 13° N 20:47:14 10° NNE
ATLAS 2AS CENTAUR R/B 3.0 20:38:02 10° NNW 20:46:00 76° NE 20:52:16 15° SE
OAO 2 Rocket 4.5 20:47:04 10° WSW 20:51:39 31° SSW 20:54:42 17° SE
Cosmos 1825 2.8 20:49:39 10° N 20:53:11 36° ENE 20:54:53 23° SE
NOSS 3 (A) 4.3 20:51:22 10° SSW 20:54:05 66° ESE 20:57:05 10° NE
Spot 2 Rocket 3.5 20:49:02 10° SSE 20:54:06 73° ENE 20:59:11 10° N
Cosmos 1328 Rocket 3.6 20:52:10 10° S 20:56:34 86° W 21:01:02 10° N
ATLAS CENTAUR R/B 1.4 20:55:32 10° SW 20:59:09 69° NW 21:02:59 10° NNE
SL-8 R/B 3.6 20:54:55 10° SW 20:59:41 72° SE 21:04:28 10° ENE
SL-16 R/B 3.0 21:01:33 20° SE 21:04:03 27° ESE 21:08:44 10° NE
Resurs 01 Rocket 2.1 21:02:35 10° S 21:06:58 61° W 21:11:23 10° NNW
Cosmos 1959 Rocket 4.5 21:02:55 10° S 21:08:56 60° E 21:14:57 10° NNE
ARGOS 3.6 21:06:46 24° SE 21:09:29 42° ENE 21:14:30 10° N
Cosmos 1470 Rocket 3.5 21:05:26 10° N 21:09:52 88° W 21:13:19 17° S
Cosmos 1727 Rocket 4.4 21:04:33 10° N 21:10:24 42° ENE 21:13:28 25° SE
Meteor 2-3 Rocket 4.1 21:08:13 10° NNW 21:13:45 63° W 21:19:18 10° S
BREEZE-M DEB (TANK) 4.5 21:07:16 10° W 21:13:56 29° NNW 21:16:40 10° NE
NOSS 3-4 (A) 4.4 21:09:36 10° NNW 21:16:17 45° NE 21:20:26 24° ESE
NOSS 3-4 (C) 4.4 21:09:42 10° NNW 21:16:23 44° NE 21:20:31 24° ESE
CZ-4B DEB 4.4 21:15:51 38° SSE 21:17:03 75° ENE 21:20:33 10° N
Cosmos 1939 Rocket 4.3 21:14:03 10° SSW 21:17:36 34° W 21:21:12 10° NNW
SL-08 RB Rocket 4.4 21:18:27 31° E 21:19:32 36° ENE 21:23:37 10° N
Cosmos 1869 3.2 21:19:48 26° S 21:21:58 71° E 21:25:59 10° NNE
NOSS 0 Rocket 4.2 21:17:24 10° SSW 21:23:33 71° WNW 21:29:46 10° NNE
Meteor 2-10 Rocket 3.8 21:20:50 19° SSE 21:24:57 59° E 21:30:40 10° NNE
Cosmos 2218 Rocket 4.0 21:19:54 10° S 21:26:14 83° E 21:32:40 10° N
USA 267 3.8 21:23:03 10° ENE 21:28:51 33° SE 21:34:37 10° S
SL-08 R/B 4.5 21:23:57 13° S 21:29:35 71° E 21:35:59 10° NNE
Cosmos 1980 4.0 21:24:34 10° SSW 21:30:13 67° WNW 21:35:54 10° NNE
USA 81 4.3 21:25:44 10° N 21:30:52 49° E 21:32:21 38° SE
ERS-1 Rocket 3.4 21:30:08 37° ESE 21:31:28 45° ENE 21:36:15 10° N
Cosmos 407 Rocket 3.7 21:27:54 10° N 21:32:56 52° ENE 21:34:17 40° ESE
Cosmos 2297 4.1 21:30:11 10° NNW 21:35:42 49° ENE 21:37:25 37° ESE
Cosmos 1408 3.4 21:33:04 10° NNW 21:36:37 49° W 21:38:11 28° SSW
Cosmos 2366 rocket 3.9 21:31:32 10° S 21:37:44 89° W 21:44:04 10° N
H-2A R/B 2.1 21:36:33 42° SE 21:37:57 57° ENE 21:42:50 10° N
Cosmos 1933 Rocket 4.3 21:34:10 10° NNW 21:38:25 50° W 21:41:04 21° SSW
Cosmos 2333 Rocket 3.8 21:36:08 10° WSW 21:41:17 35° WNW 21:46:27 10° N
Cosmos 2369 Rocket 4.2 21:39:00 10° NNE 21:41:49 14° NE 21:43:31 12° ENE
Cosmos 1151 Rocket 4.3 21:37:52 10° SSW 21:41:52 40° WNW 21:45:55 10° N
Cosmos 1371 Rocket 4.1 21:36:49 10° SSW 21:42:08 81° WNW 21:47:31 10° NNE
Cosmos 1441 Rocket 4.0 21:45:33 38° NE 21:45:33 38° NE 21:48:09 10° NNE
Helios 1B rocket 4.2 21:47:07 10° NE 21:48:47 20° NE 21:48:47 20° NE
Cosmos 1707 Rocket 4.1 21:53:00 43° ENE 21:53:00 43° ENE 21:56:21 10° NNE
Cosmos 676 Rocket 4.3 21:47:56 10° N 21:53:02 49° ENE 21:53:36 46° E
MetOp-A 4.1 21:51:20 39° S 21:53:23 79° WSW 21:58:46 10° NNW
Cosmos 1339 Rocket 4.5 21:48:35 10° N 21:54:41 78° W 21:57:44 32° S
CZ-4C R/B 4.1 21:59:36 15° ENE 21:59:36 15° ENE 22:00:44 10° NE
Cosmos 2237 Rocket 3.3 21:52:23 10° SW 21:57:42 44° WNW 22:03:05 10° NNE
Cosmos 1869 Rocket 3.4 21:56:31 10° N 22:00:53 83° ENE 22:00:53 83° ENE
Cosmos 2056 Rocket 3.9 21:58:16 10° SSW 22:03:39 66° WNW 22:09:02 10° NNE
Cosmos 1452 Rocket 4.0 22:05:38 42° ENE 22:05:38 42° ENE 22:09:37 10° NNE
Cosmos 2278 Rocket 3.4 22:02:06 10° NW 22:07:14 36° WSW 22:09:51 24° SSW
Helios 1A 3.1 22:08:42 66° NNE 22:08:42 66° NNE 22:12:26 10° N
Terra 3.0 22:09:24 29° NE 22:09:24 29° NE 22:12:54 10° N
Cosmos 1862 3.6 22:06:09 10° N 22:09:45 66° NW 22:09:45 66° NW
Cosmos 2098 Rocket 4.3 22:07:14 17° SW 22:10:24 38° W 22:14:02 10° NNW
ATLAS 5 CENTAUR R/B 4.1 22:06:09 10° N 22:10:30 21° NE 22:12:36 18° ENE
Cosmos 405 Rocket 3.5 22:15:05 50° NNW 22:15:05 50° NNW 22:18:09 10° N
Cosmos 1190 Rocket 4.5 22:19:07 10° NNW 22:24:13 52° WSW 22:24:56 48° SW
Cosmos 1140 Rocket 3.4 22:22:11 10° NNW 22:27:07 78° NNE 22:27:07 78° NNE
SPOT 5 2.9 22:28:34 67° NNW 22:28:34 67° NNW 22:32:30 10° NNW
ATLAS 2A CENTAUR R/B 4.3 22:15:13 10° SW 22:27:50 31° S 22:27:50 31° S
Lacrosse 5 3.6 22:25:26 10° NNW 22:29:32 24° NNE 22:30:32 22° NE
Cosmos 1934 Rocket 4.0 22:33:03 59° ENE 22:33:03 59° ENE 22:38:33 10° NNE
Cosmos 1954 Rocket 4.1 22:31:58 10° NNW 22:36:48 73° WNW 22:36:48 73° WNW
GEOS 3 Rocket 4.0 22:35:11 10° NNE 22:40:28 62° NW 22:43:44 23° WSW
CZ-2C R/B 4.1 22:49:11 34° NNE 22:49:11 34° NNE 22:52:14 10° N
SL-16 R/B 3.3 22:43:10 13° SW 22:47:55 42° WNW 22:53:18 10° N
Cosmos 2344 3.6 22:44:27 10° SW 22:52:04 82° NW 23:00:28 10° NE
SL-19 R/B 4.4 22:53:15 65° W 22:53:15 65° W 22:58:38 10° NNW
Cosmos 1943 Rocket 3.4 22:50:23 10° N 22:54:37 31° NE 22:54:37 31° NE
Cosmos 1821 Rocket 4.3 22:57:37 54° WSW 22:58:38 61° W 23:04:53 10° N
NOSS 3-4 (A) 4.4 23:00:34 10° NW 23:07:16 44° WSW 23:07:53 43° SW
NOSS 3-4 (C) 4.4 23:00:40 10° NW 23:07:23 44° WSW 23:07:59 44° SW
USA 267 3.4 23:05:38 10° NE 23:12:07 70° NW 23:18:36 10° WSW
Cosmos 1603 4.4 23:16:16 49° N 23:16:16 49° N 23:20:23 10° NNE
Cosmos 2123 Rocket 4.1 23:10:01 10° NNW 23:15:50 69° WNW 23:15:50 69° WNW
H-2A R/B 4.2 23:17:11 16° W 23:17:42 16° W 23:20:45 10° NW
Cosmos 2369 Rocket 2.9 23:21:06 10° NNW 23:25:18 50° N 23:25:18 50° N
CZ-2C R/B 3.8 23:36:11 10° N 23:39:33 40° N 23:39:33 40° N
CZ-4C R/B 3.2 23:44:41 42° NNW 23:44:41 42° NNW 23:49:52 10° NNE
USA 234 3.4 23:45:38 66° NNE 23:45:38 66° NNE 23:51:41 10° NW
Terra 3.9 23:48:17 22° WNW 23:48:17 22° WNW 23:50:31 10° NW
